Location: Jackson Park
(37.2862°N, 79.9123°W)
Time: 11:48:02
(UTC+00:00)

ISS - Pass Details

Date: 27 April 2026
Orbit: 414 x 424 km, 51.6° (Epoch: 12 May)

Event Time Altitude Azimuth Distance (km) Brightness Sun altitude
Exits shadow 07:25:45 13° 19° (NNE) 1,351 -0.4 -30.6°
Drops below altitude 10° 07:26:14 10° 24° (NNE) 1,498 -0.1 -30.5°
Sets 07:28:39 0° 41° (NE) 2,367 1.2 -30.3°
